User: anonymous   Login
Location: Ar Ranvel
(48.3000°N, 4.8833°W)
Time: 11:01:54
(UTC+00:00)
Language:

USA 238 - Orbit

View from above orbital plane
View from above orbital plane
View from above satellite
View from above satellite

Ground track
Ground track

The orbit data is extracted from the following two-line orbital elements,

1 38758U 12048A   21263.06529108 0.00000000  00000-0  00000-0 0    04
2 38758  63.4446 301.2731 0171648 359.3443   0.6557 13.40816931    04
Epoch (UTC): 20 September 2021 01:34:01
Eccentricity: 0.0171648
inclination: 63.4446°
perigee height: 978 km
apogee height: 1235 km
right ascension of ascending node: 301.2731°
argument of perigee: 359.3443°
revolutions per day: 13.40816931
mean anomaly at epoch: 0.6557°
orbit number at epoch: 0

The dashed part of the orbit path shows where the satellite is in the earth's shadow,  

DLR